Location: Sternwarte Stuttgart
(48.7670°N, 9.1830°E)
Time: 01:48:01
(UTC+02:00)

Daily predictions for brighter satellites

Satellite Brightness Start Highest point End
(mag) Time Altitude Azimuth Time Altitude Azimuth Time Altitude Azimuth
CZ-4B R/B 3.2 00:02:29 18° ESE 00:04:06 24° ENE 00:06:58 10° NNE
Cosmos 220 Rocket 4.0 00:02:18 24° S 00:04:52 69° ESE 00:09:18 10° NNE
SeaSat 1 2.5 00:02:12 25° SSE 00:05:06 76° WSW 00:10:04 10° NNW
BREEZE-M DEB (TANK) 4.3 00:07:48 11° E 00:07:48 11° E 00:08:04 10° E
ATLAS 2AS CENTAUR R/B 3.5 00:07:29 22° SSE 00:11:48 39° ESE 00:19:06 10° NE
Cosmos 1455 2.7 00:10:44 10° NNW 00:14:26 52° W 00:16:11 27° SSW
Terra 3.4 00:11:28 13° SSW 00:14:52 27° W 00:18:57 10° NW
Cosmos 1980 3.8 00:09:54 10° NNW 00:15:33 71° WSW 00:18:47 26° SSE
GEOS 3 Rocket 3.7 00:15:49 26° SSE 00:18:46 65° SW 00:23:58 10° NW
Cosmos 2219 4.2 00:14:51 10° SW 00:20:24 48° NW 00:25:59 10° NNE
CZ-4C R/B 3.1 00:23:56 37° SE 00:25:04 63° ENE 00:28:35 10° N
Cosmos 1689 Rocket 3.3 00:24:53 28° ESE 00:25:57 37° ENE 00:29:03 10° N
Cosmos 1862 Rocket 4.3 00:21:58 10° NNW 00:26:08 43° W 00:28:24 23° SSW
Cosmos 2237 Rocket 2.4 00:23:43 10° NNW 00:29:20 61° WSW 00:32:24 27° S
Helios 1A Rocket 4.4 00:27:15 10° NE 00:30:35 23° E 00:31:42 21° ESE
ASTEX 1 4.3 00:26:53 10° NNE 00:31:25 36° E 00:33:33 25° SE
USA 238 DEB 4.5 00:26:00 10° NW 00:32:53 52° NE 00:39:43 10° ESE
USA 238 4.5 00:26:07 10° NW 00:32:59 51° NE 00:39:48 10° ESE
H-2A R/B 4.0 00:30:06 10° SW 00:34:00 20° W 00:37:59 10° NW
Cosmos 2082 3.7 00:30:41 24° SSW 00:34:15 71° ESE 00:39:58 10° NNE
ATLAS 3B R/B 2.7 00:27:25 10° NW 00:34:36 83° NE 00:39:32 20° SE
Cosmos 1933 3.4 00:32:55 10° NNW 00:36:59 74° W 00:38:34 36° S
NOSS 3-1 (C) 3.8 00:31:49 10° SW 00:37:50 70° NW 00:44:38 10° NE
Cosmos 1937 Rocket 4.0 00:34:35 14° SW 00:39:06 59° WNW 00:44:17 10° NNE
CZ-4C R/B 4.0 00:35:28 10° NW 00:41:39 38° NNE 00:48:32 10° E
Cosmos 2074 Rocket 4.4 00:42:30 26° SSE 00:45:55 52° E 00:52:00 10° NNE
Cosmos 1269 Rocket 4.0 00:40:43 10° NNW 00:46:03 76° WSW 00:48:41 30° S
Cosmos 1709 Rocket 4.1 00:48:33 23° SSW 00:52:35 70° W 00:58:43 10° N
COS B Rocket 3.7 00:50:13 10° N 00:53:34 48° W 00:54:56 31° SW
ERBS 3.6 00:55:35 27° ESE 00:55:35 27° ESE 00:57:54 10° ENE
ALOS 2 2.6 00:53:33 35° S 00:55:21 75° WSW 00:59:45 10° NNW
Cosmos 990 Rocket 4.5 00:53:06 17° SW 00:57:00 57° WNW 01:02:06 10° NNE
Cosmos 1869 Rocket 3.5 00:55:51 34° S 00:57:47 89° W 01:02:19 10° N
In-Cosmos 22 Rocket 4.4 00:56:27 29° SSE 00:59:14 59° E 01:04:54 10° NNE
Cosmos 1733 Rocket 4.2 01:01:20 24° SE 01:02:57 31° E 01:06:54 10° NNE
Cosmos 1782 4.2 01:00:58 10° N 01:04:30 30° ENE 01:06:19 21° ESE
Cosmos 2181 Rocket 4.5 00:58:45 10° NNW 01:04:53 53° W 01:08:38 24° SSW
Cosmos 1892 3.8 01:04:54 28° ESE 01:05:52 32° E 01:09:17 10° NNE
Cosmos 389 Rocket 2.5 01:03:22 10° NNW 01:06:59 69° W 01:07:50 47° SSW
USA 234 3.6 01:00:52 10° ESE 01:07:20 69° NNE 01:13:51 10° NW
Cosmos 2333 Rocket 3.5 01:05:59 10° NW 01:10:44 27° WSW 01:13:13 20° SW
Cosmos 2227 Rocket 2.6 01:07:37 17° SW 01:12:03 63° WNW 01:17:42 10° NNE
Cosmos 374 Rocket 4.4 01:10:50 10° NW 01:14:39 80° NE 01:17:09 25° SE
Cosmos 1340 Rocket 3.6 01:15:18 31° SE 01:16:22 37° E 01:20:01 10° NNE
Lacrosse 4 Rocket 1.6 01:14:49 10° NW 01:19:09 60° WSW 01:20:38 38° S
SL-16 R/B 2.5 01:13:57 10° NW 01:19:29 54° WSW 01:22:03 30° S
Cosmos 1048 Rocket 4.4 01:14:47 10° NNW 01:19:57 51° WSW 01:22:15 30° SSW
Cosmos 1125 Rocket 3.6 01:18:13 26° SSW 01:21:15 78° WNW 01:26:37 10° NNE
Cosmos 2184 Rocket 4.0 01:18:54 28° S 01:22:23 88° E 01:28:36 10° N
MOS 1-B Rocket 3.8 01:19:23 27° SSE 01:22:41 86° ENE 01:28:19 10° NNW
Landsat 5 4.1 01:24:21 33° SSW 01:25:57 49° W 01:30:22 10° NNW
COSMOS 2455 3.2 01:20:39 10° NW 01:26:26 49° WSW 01:29:07 29° S
Cosmos 494 Rocket 4.5 01:21:14 10° NNW 01:26:27 57° ENE 01:29:55 21° SE
H-2A R/B 3.0 01:24:57 10° N 01:28:56 52° WNW 01:30:56 27° SW
Cosmos 1607 4.3 01:23:16 10° NW 01:29:23 63° NE 01:35:30 10° SE
Cosmos 1932 4.5 01:24:28 10° NW 01:30:52 89° WSW 01:35:36 20° SE
Coronas F rocket 2.5 01:31:13 33° E 01:31:13 33° E 01:33:38 10° NNE
NOSS 2-3 (D) 4.3 01:32:30 33° S 01:34:29 51° ESE 01:40:05 10° NE
Okean 1-7 4.2 01:32:57 10° NNW 01:36:45 31° W 01:38:15 24° SW
Cosmos 1356 Rocket 3.9 01:35:33 33° SE 01:36:49 45° E 01:40:42 10° NNE
CZ-4B R/B 2.9 01:36:15 25° WSW 01:36:53 26° W 01:39:53 10° NW
Meteor 2-6 Rocket 4.4 01:31:42 10° N 01:37:29 72° ENE 01:40:57 26° SSE
Cosmos 1825 4.1 01:38:23 16° ESE 01:39:49 19° E 01:42:36 10° NE
Cosmos 2297 Rocket 2.7 01:35:42 17° SW 01:39:58 55° WNW 01:45:33 10° NNE
Aureole 2 Rocket 2.1 01:39:48 10° NNW 01:42:47 61° WSW 01:43:01 58° SW
Cosmos 1943 3.9 01:40:52 10° NNW 01:46:27 51° NE 01:51:52 10° SE
Cosmos 1674 Rocket 3.5 01:42:46 10° N 01:47:12 86° W 01:48:59 36° S
Cosmos 1603 3.7 01:47:09 10° NNW 01:52:49 73° WSW 01:55:57 28° SSE
CZ-2C R/B 2.5 01:48:19 10° NNE 01:53:38 89° ESE 01:56:16 30° SSW
Meteor 1-10 Rocket 4.4 01:48:31 10° NNW 01:54:26 74° W 01:57:38 29° S
Cosmos 1975 Rocket 4.1 01:50:42 10° N 01:54:54 40° ENE 01:57:33 20° SE
Cosmos 1408 4.2 01:53:49 21° SE 01:55:13 27° E 01:58:28 10° NNE
CZ-2C R/B 3.3 01:52:18 27° SSE 01:55:38 87° WSW 02:01:20 10° NNW
Meteor 2-3 Rocket 4.3 01:58:54 23° SW 02:02:21 51° WNW 02:07:56 10° N
ATLAS 2AS CENTAUR R/B 3.4 01:54:51 10° SW 02:02:30 67° NW 02:10:40 10° NE
Cosmos 1908 Rocket 3.7 02:03:19 33° SSE 02:05:07 61° E 02:09:25 10° NNE
Cosmos 44 Rocket 3.4 02:02:47 30° SSW 02:05:20 72° SE 02:10:36 10° NE
Meteor 2-10 Rocket 4.1 02:00:34 10° NNW 02:05:50 49° W 02:08:34 27° SSW
Helios 1A Rocket 3.9 02:02:06 10° N 02:05:59 39° WNW 02:08:02 23° WSW
Cosmos 372 Rocket 4.4 02:03:15 23° SW 02:06:26 56° WNW 02:11:36 10° NNE
BREEZE-M DEB (TANK) 2.9 02:03:39 10° WNW 02:09:14 35° SW 02:09:22 35° SW
Cosmos 921 Rocket 3.1 02:12:07 34° S 02:13:43 60° ESE 02:17:52 10° NNE
Sich 1 Rocket 3.6 02:13:09 34° SSW 02:15:06 82° W 02:19:39 10° N
Cosmos 2251 Rocket 4.1 02:10:46 10° NW 02:15:47 42° WSW 02:17:59 28° SSW
Cosmos 1606 2.7 02:15:48 10° NNW 02:19:38 70° W 02:20:58 38° S
USA 238 DEB 4.0 02:17:11 10° NW 02:23:54 49° WSW 02:28:10 22° S
USA 238 4.0 02:17:17 10° NW 02:24:00 49° WSW 02:28:18 22° S
ATLAS 3B R/B 3.8 02:19:08 10° WNW 02:24:30 24° WSW 02:26:45 20° SW
Cosmos 1867 4.1 02:19:40 10° NW 02:25:07 60° NE 02:30:32 10° SE
Cosmos 1238 Rocket 3.1 02:20:51 10° NNW 02:25:23 57° W 02:26:49 35° SSW
Nadezhda 3 Rocket 4.4 02:19:39 10° NNW 02:25:35 50° W 02:29:04 25° SSW
Cosmos 2084 Rocket 3.3 02:27:10 37° S 02:28:24 57° SE 02:32:09 10° NE
Landsat 4 4.3 02:26:48 21° SE 02:29:06 54° ENE 02:32:49 10° N
PSLV R/B 4.5 02:28:56 31° SW 02:30:17 42° W 02:34:11 10° NNW
CZ-4C R/B 2.8 02:23:55 10° NW 02:30:52 79° SW 02:38:35 10° SSE
ERBS 3.3 02:29:00 16° W 02:31:34 47° NNW 02:34:57 10° NE
Meteor 2-13 Rocket 4.4 02:31:41 25° S 02:35:29 86° E 02:41:40 10° N
NOSS 2-3 (E) 4.4 02:32:59 18° WSW 02:36:49 65° NW 02:42:54 10° NE
Cosmos 1733 Rocket 4.4 02:38:26 19° WSW 02:40:45 30° WNW 02:44:42 10° N
Cosmos 1782 4.2 02:37:31 10° NW 02:40:47 25° W 02:41:59 21° WSW
Cosmos 1727 Rocket 4.2 02:35:14 10° N 02:41:32 73° E 02:46:41 16° SSE
Cosmos 1892 4.5 02:40:00 16° WSW 02:41:44 22° WNW 02:44:45 10° NNW
USA 234 3.4 02:44:13 10° SSE 02:50:32 50° SW 02:56:53 10° WNW
Cosmos 1378 Rocket 4.3 02:47:07 10° NNW 02:51:12 38° W 02:53:03 25° SW
Meteor 1-27 Rocket 4.4 02:47:40 10° NNW 02:53:12 42° W 02:56:28 22° SSW
CRYOSAT 2 4.4 02:48:27 10° N 02:53:20 76° E 02:56:32 21° S
RESURS DK-1 4.0 02:51:56 16° SSE 02:54:13 25° ESE 02:57:38 10° NE
Cosmos 1242 Rocket 2.9 02:51:36 10° N 02:55:04 57° ENE 02:57:26 18° SSE
NOSS 3-2 (C) 3.9 02:50:25 10° NW 02:57:48 76° SW 03:05:47 10° SSE
Okean 2 Rocket 3.2 02:57:25 26° SSW 02:59:58 73° W 03:04:30 10° N
COSMOS 2406 4.1 02:55:06 10° NNW 03:00:46 52° NE 03:06:24 10° SE
Cosmos 1812 4.2 02:58:49 10° N 03:02:26 35° ENE 03:06:02 10° SE
Coronas F rocket 4.0 03:02:34 10° W 03:03:08 10° WNW 03:03:42 10° NW
CZ-2D R/B 4.4 03:00:20 10° NE 03:03:55 18° E 03:07:31 10° SE
Okean 3 4.3 02:59:58 10° NNW 03:03:56 36° W 03:05:53 23° SW
CENTAUR R/B 3.9 02:56:50 10° NW 03:04:12 54° NE 03:12:12 10° ESE
ARIANE 5 R/B 4.4 03:03:02 10° NE 03:06:56 22° E 03:10:49 10° SE
Cosmos 2263 Rocket 2.4 03:03:14 21° S 03:07:03 64° ESE 03:12:42 10° NNE
Iridium 4 Rocket 3.2 03:08:17 10° N 03:12:46 88° W 03:16:24 18° S
Cosmos 1782 Rocket 4.1 03:10:49 22° SW 03:13:17 45° WNW 03:17:31 10° N
CBERS-1 4.4 03:09:19 10° NNE 03:14:25 59° E 03:18:29 16° S
ERS-2 2.7 03:11:13 10° NNE 03:14:51 52° E 03:17:19 19° S
Cosmos 1825 3.2 03:13:20 21° SW 03:15:14 35° WNW 03:18:46 10° N
Tiangong 1 2.5 03:16:14 21° SSE 03:16:14 21° SSE 03:17:54 10° SE
PSLV R/B 3.8 03:13:14 10° N 03:17:24 55° WNW 03:20:00 21° SW
SL-16 R/B 3.4 03:17:25 10° SE 03:23:23 50° ENE 03:29:23 10° N
NOSS 3-2 (A) 4.2 03:16:23 10° NW 03:23:28 49° WSW 03:31:04 10° SSE
NOSS 3-4 (A) 3.6 03:18:40 19° SSW 03:23:29 73° SE 03:30:08 10° NE
NOSS 3-4 (C) 3.6 03:18:46 19° SSW 03:23:35 73° SE 03:30:13 10° NE
IRS-1C 4.5 03:20:18 10° NNE 03:25:36 61° ESE 03:30:13 14° S
Cosmos 44 3.8 03:22:01 16° SW 03:26:16 65° NW 03:31:44 10° NE
Meteor 1-18 Rocket 4.2 03:21:28 10° NNW 03:27:06 85° W 03:32:49 10° S
BREEZE-M DEB (TANK) 3.2 03:18:32 10° WSW 03:29:43 84° SSE 03:33:04 10° ENE
Cosmos 1943 4.1 03:25:21 10° NW 03:30:15 30° WSW 03:33:37 17° SSW
Cosmos 1408 4.2 03:28:20 16° WSW 03:30:25 25° WNW 03:33:35 10° NNW
ATLAS 5 CENTAUR R/B 4.2 03:25:57 10° NNW 03:31:08 34° NNE 03:36:42 10° E
Elektron 3 4.3 03:30:36 10° WNW 03:33:31 49° SW 03:38:03 10° SSE
Cosmos 1190 Rocket 3.9 03:31:54 10° NNW 03:37:09 76° WSW 03:42:20 10° SSE
Cosmos 1184 Rocket 3.5 03:38:12 20° SW 03:40:11 42° WNW 03:43:26 10° N
IRS-P3 4.3 03:35:27 10° N 03:40:45 64° WNW 03:45:06 15° SSW
Cosmos 1300 Rocket 3.9 03:39:21 12° S 03:43:21 61° E 03:47:40 10° NNE
Cosmos 1536 Rocket 3.9 03:40:22 10° NNW 03:44:34 47° W 03:47:59 15° SSW
Spot 4 Rocket 4.3 03:39:54 10° NNE 03:45:03 65° ESE 03:50:03 11° S
Cosmos 1371 Rocket 4.1 03:41:03 16° SSW 03:45:23 78° WNW 03:50:47 10° NNE
Cosmos 2056 Rocket 3.6 03:42:29 15° SSW 03:46:56 84° ESE 03:52:13 10° NNE
Abrixas rocket 3.9 03:49:15 15° S 03:50:54 21° SSE 03:53:29 10° E
Cosmos 1140 Rocket 4.4 03:48:08 10° NNW 03:53:11 51° ENE 03:58:11 10° SE
Cosmos 1821 Rocket 4.3 03:47:37 10° S 03:53:58 72° E 04:00:22 10° NNE
USA 161 1.4 03:52:05 13° S 03:54:28 67° W 03:57:21 10° NNW
Cosmos 407 Rocket 3.5 03:51:07 10° NNW 03:56:13 65° WSW 04:01:20 10° S
Okean 1-7 Rocket 3.6 03:51:57 10° N 03:56:32 84° W 04:01:07 10° S
Cosmos 2151 Rocket 4.3 03:54:42 15° SW 03:58:06 42° WNW 04:02:22 10° N
Meteor 1-13 Rocket 4.4 03:53:53 10° N 03:59:33 83° ENE 04:05:18 10° SSE
Cosmos 676 Rocket 3.9 03:54:52 10° NNW 04:00:05 79° WSW 04:05:16 10° SSE
Resurs 1-4 Rocket 2.9 03:55:14 10° NNE 04:00:24 49° E 04:05:32 10° S
UNKNOWN OBJECT B 4.5 03:59:01 10° NNE 04:02:43 32° E 04:06:23 10° SSE
SL-08 R/B 4.3 03:59:48 13° SSW 04:03:38 32° W 04:08:03 10° NNW
IRS-1D 3.9 04:01:18 10° NNE 04:06:26 65° ESE 04:11:26 10° S
BREEZE-M DEB (TANK) 4.0 03:49:46 10° W 04:06:46 85° N 04:10:50 10° E
Cosmos 1867 4.5 04:03:48 10° WNW 04:08:24 28° WSW 04:12:58 10° S
Okean O Rocket 3.7 04:05:36 10° NE 04:09:07 23° E 04:12:37 10° SSE
BREEZE-M TANK 3.1 04:07:41 10° WSW 04:09:49 19° SSW 04:11:50 10° SSE
Meteor 1-20 Rocket 4.4 04:05:32 10° SSW 04:11:16 70° WNW 04:17:05 10° N
NPP 4.4 04:11:20 10° N 04:16:20 40° WNW 04:21:19 10° SW
USA 129 4.0 04:14:32 10° SE 04:16:26 27° ENE 04:18:19 10° N
Okean 1 Rocket 3.2 04:13:34 10° SSW 04:17:58 68° WNW 04:22:26 10° N
GP-B 3.8 04:14:31 10° NNW 04:18:41 39° W 04:22:49 10° SSW
CZ-4C R/B 4.1 04:13:40 10° WNW 04:18:44 21° WSW 04:24:06 10° SSW
Meteor 2-21 Rocket 4.5 04:19:51 10° S 04:25:55 84° W 04:32:04 10° N
Okean 1 4.2 04:22:30 10° NNW 04:26:03 31° W 04:29:35 10° SSW
EO 1 Del DPAF 3.5 04:23:37 10° S 04:27:26 52° W 04:31:17 10° NNW
UNK 3.8 04:23:44 10° S 04:28:17 61° W 04:32:55 10° NNW
SL-27 R/B 3.3 04:25:53 10° NW 04:29:09 32° WSW 04:32:28 10° SSW
Cosmos 1954 Rocket 4.1 04:24:37 10° NNW 04:29:43 57° WSW 04:34:45 10° S
Meteor 2-15 4.5 04:25:43 10° NNW 04:31:51 72° W 04:37:58 10° S
RESURS DK-1 3.2 04:28:10 10° WSW 04:32:06 40° NW 04:36:03 10° NNE
ADEOS 4.1 04:27:17 10° N 04:32:17 46° WNW 04:37:15 10° SW
Cosmos 1400 Rocket 3.7 04:33:48 10° S 04:37:32 47° E 04:41:20 10° NNE
Cosmos 1812 4.3 04:35:12 10° NW 04:38:07 20° W 04:41:01 10° SW
CZ-2D R/B 3.9 04:36:49 10° NNE 04:40:46 58° E 04:44:42 10° S
